Location: Sabalos
(43.2860°N, 0.1414°E)
Time: 04:01:38
(UTC+00:00)

Cosmos 1844 Rocket - Pass Details

Date: 05 July 2020
Orbit: 826 x 843 km, 71.0° (Epoch: 06 August)

Event Time Altitude Azimuth Distance (km) Brightness Sun altitude
Rises 21:06:00 0° 334° (NNW) 3,375 7.5 -12.4°
Reaches altitude 10° 21:08:26 10° 334° (NNW) 2,437 6.4 -12.7°
Maximum altitude 21:14:02 87° 247° (WSW) 833 2.7 -13.3°
Enters shadow 21:18:12 18° 159° (SSE) 1,899 4.0 -13.8°
